Wind_Speed
12 11 9 8 7 6 5 4 3 3 5 7 7 8 8 8 8 7 7 7 7 7 8 8 7 7 6 5 4 3 3 5 5 8 7 4 4 5 5 4 3 4 5 5 5 4 5 7 6 6 6 3 0 1 1 1 1 1 0 1 3 2 2 1 2 3 5 7 6 7 8 6 6 3 2 2 1 2 3 3 4 6 7 9 11 14 15 15
13 12 9 8 8 6 5 4 3 3 5 6 7 7 8 7 7 7 7 7 7 7 8 8 8 7 6 5 4 3 4 6 6 9 7 5 6 6 5 4 3 4 4 4 6 7 6 4 7 6 4 3 1 1 2 1 0 1 1 2 2 2 2 4 6 5 3 7 8 7 7 5 7 7 3 2 4 5 4 4 5 6 6 8 12 14 14 14
14 13 11 9 8 6 5 4 3 3 4 5 6 7 7 7 7 7 6 7 7 7 8 8 8 7 6 5 4 3 4 5 6 6 7 8 7 5 5 4 4 4 5 4 5 6 7 4 6 6 3 2 1 1 2 0 0 0 0 0 1 3 3 6 8 6 5 5 8 6 4 2 4 5 4 3 5 7 7 5 7 7 6 8 10 13 15 14
15 13 11 10 8 6 5 4 3 2 3 4 6 7 7 7 7 7 6 7 7 7 8 8 8 7 6 4 4 4 3 3 3 5 10 9 6 5 4 4 4 4 5 5 4 5 8 6 4 5 3 2 1 1 2 1 0 1 2 1 2 2 3 6 7 5 5 3 5 6 3 2 3 3 4 4 4 5 6 6 7 8 10 11 10 12 15 15
15 13 12 11 9 6 5 4 4 3 3 3 5 6 7 7 7 7 7 7 7 8 8 9 8 7 6 4 4 3 1 2 1 6 12 9 5 4 3 3 4 4 5 3 3 5 7 7 4 3 3 2 4 3 3 3 0 1 2 3 3 4 3 4 5 5 5 2 5 7 4 3 4 2 3 5 3 3 2 1 3 3 8 13 11 12 14 13
15 13 13 13 9 7 6 4 4 4 4 4 5 6 7 7 7 7 7 7 7 8 8 9 8 7 6 4 4 3 2 1 2 5 10 8 4 4 3 3 4 4 5 3 5 6 5 6 4 3 3 2 5 4 3 3 1 2 2 3 4 4 3 3 3 4 6 3 5 4 2 3 3 2 4 6 5 3 4 5 7 7 11 16 14 13 11 10
17 14 13 13 10 8 6 5 5 4 4 5 6 6 6 7 7 7 7 7 7 8 8 8 8 7 5 3 3 3 3 1 2 5 9 6 4 3 3 3 3 5 5 4 7 6 5 5 5 4 2 2 5 4 2 3 2 1 2 3 4 5 5 4 3 2 5 5 3 1 2 2 4 2 0 4 6 3 6 7 8 8 12 16 13 10 10 11
18 16 14 13 11 9 7 5 5 5 5 7 7 7 6 7 7 7 7 7 7 8 8 8 8 7 6 4 2 3 3 2 4 7 8 5 2 2 2 2 2 5 3 6 6 4 5 5 4 3 1 1 3 4 1 3 2 0 3 4 3 5 5 4 4 2 4 4 3 2 0 0 2 1 2 4 7 4 5 8 8 8 8 10 10 9 9 10
18 16 15 15 13 12 9 6 5 5 5 6 7 7 6 7 7 7 7 7 7 8 8 8 7 7 7 4 2 3 2 4 7 9 8 4 2 2 2 2 1 2 3 5 5 4 4 3 2 1 2 1 3 4 0 1 1 1 5 5 4 5 4 4 4 3 3 2 2 1 2 1 4 2 3 7 8 5 7 8 7 7 6 6 7 8 9 8
18 17 16 16 15 14 13 9 5 5 5 7 8 7 7 7 7 7 7 7 7 8 8 8 7 7 6 4 3 2 1 5 7 8 7 4 3 3 2 1 2 3 4 3 2 4 2 1 2 2 3 2 3 2 2 2 1 3 6 6 6 6 4 2 3 4 2 3 2 2 2 1 4 1 3 4 3 6 8 7 6 6 6 6 6 7 9 10
18 18 17 16 15 14 14 12 8 5 7 9 8 7 7 7 7 7 7 7 8 8 8 8 7 7 6 4 4 2 1 4 7 8 7 4 2 2 1 2 2 2 1 3 3 3 4 5 3 2 2 3 4 3 3 0 1 4 7 7 5 5 4 2 3 4 2 2 0 3 3 2 3 2 6 3 2 5 7 6 7 6 6 7 7 7 8 10
20 18 17 17 16 15 15 14 10 7 9 10 8 7 7 7 7 7 7 7 8 9 8 7 8 8 4 3 4 2 2 5 8 9 6 3 3 2 2 1 1 3 2 5 4 3 4 4 3 3 1 1 4 4 2 3 1 5 5 5 5 4 4 5 4 4 2 1 1 2 4 5 5 8 9 6 5 5 6 6 6 6 6 6 7 6 6 8
20 18 17 17 16 14 14 14 11 8 9 9 7 7 7 7 7 7 7 8 8 8 7 7 7 6 3 2 1 2 4 7 8 8 6 6 4 4 4 3 3 2 2 7 6 4 5 4 3 3 1 1 3 1 2 2 1 4 3 1 5 3 3 6 4 4 3 1 1 3 2 5 7 12 7 8 7 6 5 6 6 6 6 6 6 6 6 7
19 17 16 15 14 13 12 11 11 9 8 7 6 7 7 7 7 7 7 8 8 7 6 6 6 5 2 0 2 2 5 9 8 7 8 8 6 6 6 5 5 4 6 9 7 6 6 4 3 4 2 3 3 2 2 3 0 2 1 1 3 3 2 3 4 5 3 1 1 4 1 6 3 6 5 6 7 6 6 6 7 7 6 6 6 7 6 8
19 16 15 14 14 13 12 11 10 9 9 7 7 8 7 6 7 6 7 7 7 6 5 6 6 4 1 1 1 3 8 9 6 6 9 8 4 5 6 7 9 8 9 11 9 8 7 4 3 4 2 2 3 3 4 3 2 2 2 1 3 3 2 2 2 4 3 0 3 3 2 6 2 4 5 4 5 5 6 6 7 7 7 7 6 7 6 7
18 16 14 14 13 12 12 12 11 10 9 7 7 8 6 5 5 5 6 6 5 6 5 4 7 5 2 1 4 5 6 5 5 8 9 7 3 5 7 8 8 7 7 9 9 7 6 4 2 1 1 0 2 4 4 3 1 2 2 2 3 3 3 3 1 0 2 2 3 4 3 4 1 4 5 4 5 6 5 6 7 7 7 8 7 7 7 6
18 16 14 13 13 12 11 12 11 10 9 8 7 6 4 3 5 4 5 6 4 6 4 2 6 5 2 2 4 4 5 5 7 9 9 7 5 7 7 5 5 5 5 5 4 3 3 3 1 1 1 1 4 3 4 2 3 3 3 2 2 2 3 3 0 0 2 1 2 5 5 6 7 5 4 5 7 7 7 8 8 7 7 7 7 7 7 8
17 16 14 13 12 11 11 10 10 9 9 8 6 5 6 6 6 5 6 8 7 4 2 4 3 4 2 3 3 4 8 10 9 9 8 7 7 6 3 2 4 4 4 2 0 0 1 1 1 1 1 2 3 3 4 2 2 3 4 3 2 2 3 2 2 2 3 2 2 4 6 8 11 9 7 7 8 9 8 9 8 8 8 7 7 8 8 9
17 16 13 11 11 11 10 10 9 8 8 8 8 9 8 7 5 3 4 7 5 2 1 3 5 2 1 5 5 7 10 12 10 7 6 6 5 4 1 3 4 2 2 1 1 1 1 1 1 1 3 3 4 4 3 2 3 2 3 2 1 0 1 2 4 0 1 2 4 6 7 9 9 10 9 8 8 9 9 9 8 8 8 8 7 7 8 10
17 15 13 10 10 11 10 10 10 9 10 10 10 8 5 4 3 2 4 5 3 1 2 3 6 2 3 5 7 11 12 9 6 3 6 7 5 4 3 3 1 1 2 2 2 1 1 2 2 3 3 4 6 3 3 5 5 3 2 2 2 2 2 3 4 1 2 0 5 7 7 9 9 9 9 8 7 7 8 9 9 9 9 8 8 8 9 9
17 15 13 10 11 12 11 10 10 10 12 12 8 4 3 6 3 3 5 4 4 1 4 1 2 3 5 9 10 11 8 3 1 3 7 8 5 4 4 3 2 2 2 4 4 1 2 1 3 3 2 3 3 5 6 5 4 3 2 2 2 0 2 3 3 1 1 2 4 6 7 10 9 8 8 8 8 10 11 10 11 11 9 7 8 9 9 7
17 14 12 10 12 13 11 10 10 11 13 10 7 6 3 2 2 6 7 3 5 2 2 1 2 5 6 9 11 7 2 3 3 4 7 8 4 3 4 4 4 4 3 5 4 2 1 2 2 3 4 6 6 6 7 4 4 3 1 2 1 1 2 4 3 0 1 1 4 6 6 10 12 10 10 11 11 12 11 11 11 11 8 8 9 9 9 7
16 14 11 10 13 13 11 11 10 11 13 10 9 7 4 4 3 9 7 2 3 3 1 2 2 5 5 3 6 5 2 5 5 5 9 9 4 2 4 5 5 4 5 5 4 3 2 3 1 4 3 6 6 4 5 3 1 1 1 1 1 1 2 1 1 2 3 1 2 6 5 9 12 11 11 13 13 12 11 11 11 9 8 9 8 7 8 9
16 14 11 10 14 14 13 12 10 11 12 11 12 10 6 5 5 10 4 0 3 2 1 1 0 4 5 3 6 6 1 3 4 6 12 10 4 2 3 6 6 4 4 6 6 5 3 0 1 2 2 4 5 3 3 2 1 3 4 2 2 0 3 2 1 2 3 1 3 5 5 6 7 7 8 6 5 8 9 9 10 9 8 7 6 6 7 8
17 15 12 12 14 16 14 11 10 11 10 11 15 15 9 4 4 9 2 1 4 1 2 2 1 3 6 6 6 4 1 1 2 5 12 8 2 3 2 2 4 4 6 8 7 5 2 1 2 3 3 2 4 3 4 4 1 3 3 1 2 3 5 3 3 3 1 2 3 1 4 6 4 4 6 4 1 5 5 6 10 9 7 6 6 7 7 6
17 16 14 15 16 18 14 7 9 12 10 10 13 15 11 4 4 7 2 1 3 2 2 4 3 6 9 7 5 3 2 1 3 3 7 4 1 1 1 1 1 2 6 6 3 2 2 1 2 4 5 3 3 1 4 5 1 2 2 4 4 5 6 3 4 3 1 3 4 3 1 5 6 6 9 8 8 8 5 7 10 9 6 7 7 7 6 6
18 17 17 18 19 19 10 3 10 14 7 8 13 14 12 5 4 6 2 2 3 4 5 2 1 7 9 8 8 5 2 4 2 3 2 1 1 2 1 4 2 1 2 2 2 0 3 2 1 3 4 4 3 1 2 6 3 2 3 4 2 6 4 2 3 0 2 3 3 4 4 4 6 6 9 10 11 9 7 8 11 8 5 6 6 6 6 5
19 18 20 19 20 20 8 4 12 13 3 5 13 16 12 6 5 4 2 2 3 4 4 1 2 6 7 6 9 4 2 6 5 0 2 2 1 2 1 3 5 5 2 3 4 1 2 4 4 4 5 3 4 0 2 3 4 2 3 2 3 6 3 2 2 1 2 4 3 3 3 3 6 5 6 8 9 7 8 10 10 4 5 6 6 6 5 5
20 20 21 19 19 19 7 1 6 8 2 4 12 15 11 7 4 2 1 3 3 3 2 3 4 5 6 5 6 4 3 2 1 1 2 2 1 1 1 2 3 6 2 3 4 1 2 3 2 3 5 3 3 2 4 2 3 3 4 2 5 4 4 3 2 2 3 3 3 5 5 2 6 4 4 5 6 7 8 9 5 4 7 6 6 6 5 5
21 21 22 20 18 19 14 9 8 6 2 1 9 13 9 5 3 4 5 4 3 3 2 2 3 7 10 8 6 6 5 2 2 3 3 2 1 1 1 1 1 5 4 5 5 2 1 1 0 1 2 3 5 3 4 3 3 4 3 3 4 2 4 3 1 4 2 3 3 5 7 4 5 4 3 3 5 7 7 4 3 5 5 6 6 6 6 5
24 23 23 22 20 17 12 7 8 8 5 2 9 12 6 2 2 6 7 1 1 3 2 2 4 10 15 13 7 6 6 4 5 7 5 3 1 1 2 0 2 4 3 2 3 2 1 1 1 1 2 2 5 4 4 4 3 2 2 3 3 2 4 3 2 4 0 4 2 3 2 3 5 4 1 2 4 4 4 3 6 7 5 6 6 6 6 6
26 25 24 23 19 15 11 4 2 7 7 5 9 6 4 4 4 6 5 2 1 5 5 6 8 11 15 13 9 8 8 6 6 8 7 6 4 5 5 4 4 3 1 3 3 2 1 1 2 3 4 2 4 4 4 5 4 1 2 5 4 1 2 1 1 1 3 4 3 5 5 2 7 5 3 5 5 4 4 4 6 8 7 7 7 6 6 6
29 26 26 25 20 17 15 6 1 2 7 8 5 2 3 6 6 7 7 4 2 3 6 9 10 12 14 12 8 9 8 6 7 7 7 7 6 6 6 6 7 4 2 5 4 2 1 1 2 3 3 3 4 4 3 1 1 3 5 5 5 3 1 3 2 2 4 3 4 5 3 3 6 4 6 8 6 5 5 4 4 6 7 7 8 7 6 6
28 27 26 26 23 20 18 12 3 2 7 7 3 3 6 7 7 10 11 5 2 2 6 10 11 12 13 10 9 10 7 6 9 8 7 7 5 6 7 8 10 5 2 5 4 5 4 2 3 5 2 5 6 4 5 6 4 5 4 3 4 4 3 3 3 2 3 1 3 4 1 3 2 3 5 4 1 2 2 4 3 2 3 5 6 7 7 7
26 28 27 25 24 22 18 15 9 5 7 5 3 6 9 8 7 11 11 5 4 4 7 11 11 12 10 7 9 9 3 3 9 8 7 8 6 7 7 8 11 7 4 4 3 4 6 4 2 2 2 8 7 2 1 6 3 4 2 1 4 4 2 1 1 2 2 1 3 2 3 5 4 7 9 6 5 5 4 6 6 4 2 3 4 6 7 7
28 28 27 24 24 23 18 15 12 8 5 4 5 7 8 8 8 9 7 5 5 8 11 10 8 9 8 5 7 8 1 2 9 7 4 7 6 8 8 7 10 10 6 6 2 3 5 2 2 3 3 3 3 3 3 3 1 2 2 3 4 1 4 3 1 1 4 2 4 3 5 6 3 9 11 10 11 9 6 7 6 7 6 5 7 7 7 7
31 25 22 22 23 23 20 15 12 10 4 4 7 8 8 8 8 6 5 8 9 11 11 8 5 7 8 5 5 9 4 3 8 6 4 5 5 8 10 6 10 12 9 7 2 2 6 1 3 2 3 2 2 3 3 3 2 4 3 3 1 3 3 3 1 2 1 5 4 4 8 7 2 6 5 1 5 7 8 9 8 8 8 8 10 7 7 8
26 22 15 20 27 24 21 17 13 8 3 3 9 9 8 10 9 5 6 11 11 12 9 6 5 6 7 7 6 9 8 5 7 6 5 5 4 8 11 6 8 13 12 8 3 2 5 2 3 3 2 2 2 1 1 3 3 4 2 1 2 1 1 2 2 2 3 4 4 4 7 6 6 8 4 2 3 6 8 9 9 9 9 9 9 7 6 7
14 13 6 19 31 26 23 20 13 6 3 6 10 9 8 10 8 4 7 12 10 10 9 5 5 5 6 8 8 9 9 8 8 6 5 5 4 7 12 8 6 12 13 11 6 1 3 4 2 3 3 1 2 1 4 0 3 3 3 2 2 2 3 3 3 3 3 4 5 5 4 5 7 6 5 7 8 8 9 8 8 9 9 8 8 6 6 6
4 3 1 17 32 30 26 19 9 4 4 8 11 8 7 7 5 3 5 9 7 6 7 7 8 7 7 8 9 9 8 8 10 7 5 7 5 5 10 10 7 9 12 11 7 3 3 3 3 2 5 1 2 4 7 7 4 2 1 2 2 1 2 0 1 2 4 3 3 4 5 8 6 4 6 7 5 5 8 9 8 9 8 6 4 4 5 6
1 1 0 18 34 34 26 14 5 5 5 8 11 9 6 3 2 3 1 2 2 1 2 6 9 8 6 7 8 8 7 6 8 7 5 7 7 4 7 10 9 8 8 8 7 4 4 3 4 2 2 3 3 3 4 5 6 7 6 7 7 5 4 1 3 3 2 2 3 2 5 11 6 4 3 2 3 3 5 7 7 5 3 3 4 4 5 6
2 2 3 19 36 34 20 7 4 5 5 8 7 5 2 1 1 2 1 1 1 1 0 4 7 7 6 7 6 8 8 5 7 7 5 9 9 6 7 9 11 11 9 7 7 5 4 4 4 3 3 3 1 1 2 2 1 2 4 4 5 5 5 4 5 3 1 2 3 1 5 12 5 5 4 2 4 4 4 4 3 2 3 5 6 5 5 5
4 3 4 20 36 29 12 4 5 6 6 4 2 0 1 1 2 1 1 1 1 1 1 2 5 6 6 6 6 8 9 6 7 9 7 8 9 6 8 11 12 13 9 5 4 2 3 3 3 3 1 2 2 1 2 4 3 1 3 1 2 4 5 5 5 3 2 3 4 2 6 12 5 5 4 2 3 3 3 3 2 2 2 4 6 6 5 5
3 3 2 18 34 24 7 4 7 10 10 5 4 3 1 2 1 2 1 3 1 2 4 3 4 6 5 6 6 9 10 6 6 9 7 6 5 3 8 14 13 11 8 5 6 5 3 3 4 4 2 1 2 2 2 3 1 2 3 3 5 6 7 6 4 2 2 8 9 5 8 11 4 4 3 1 1 3 4 4 6 6 6 5 5 6 6 6
2 3 1 11 23 16 4 2 5 9 11 7 7 8 4 1 1 1 1 1 2 1 3 2 3 4 5 7 6 7 10 7 4 6 6 5 2 3 5 14 14 9 5 6 9 8 5 5 5 5 5 5 4 3 3 2 1 1 4 7 9 9 9 7 4 3 6 12 11 8 9 12 9 3 3 3 3 5 7 5 6 6 6 5 5 6 6 6
1 2 2 4 9 7 3 2 3 5 6 5 5 8 8 6 3 1 1 1 2 2 0 2 1 3 5 8 7 6 9 8 5 5 6 6 3 2 1 9 12 9 4 8 11 7 3 4 7 8 9 9 7 6 6 7 5 5 9 11 12 13 12 8 4 6 10 10 8 11 12 14 18 12 5 6 6 6 7 6 6 6 6 6 6 7 6 6
2 2 3 4 4 5 4 4 5 5 5 7 5 5 9 8 3 1 1 1 2 2 1 2 1 5 8 9 9 7 9 10 7 6 7 7 3 2 3 1 6 7 6 8 9 5 4 3 8 11 11 11 11 9 7 11 10 12 13 13 14 15 14 12 11 13 13 7 9 14 11 11 21 18 10 10 9 7 8 7 7 7 7 7 6 5 5 5
2 1 1 1 1 4 5 7 10 8 7 9 5 4 9 10 7 4 2 1 2 3 0 0 2 6 8 10 10 7 8 9 8 8 8 5 4 4 2 4 1 3 4 4 5 4 4 4 7 10 12 13 13 11 8 11 10 10 13 15 16 16 16 17 19 21 16 9 12 16 11 12 20 17 9 10 10 9 10 10 9 7 7 7 7 6 6 7
1 1 2 1 1 2 4 8 13 10 9 10 5 4 9 12 12 9 2 3 0 2 1 3 5 6 5 6 8 8 8 9 9 10 6 5 5 5 4 1 2 0 2 4 4 1 3 5 7 8 9 11 13 13 9 9 7 7 10 13 15 18 21 22 22 23 19 13 15 17 15 16 20 14 7 9 9 8 8 7 7 7 7 8 7 6 6 7
1 1 1 0 1 1 1 6 12 10 8 9 6 5 7 11 15 12 5 4 4 3 3 6 6 5 2 1 3 5 5 4 5 7 5 6 6 5 4 4 3 3 2 3 2 1 1 5 6 6 5 8 12 13 9 8 7 7 7 10 15 18 20 22 20 17 14 14 17 17 16 19 18 10 8 12 10 8 9 7 7 8 7 6 6 6 7 8
2 2 1 0 1 3 2 4 9 9 6 8 7 6 8 12 15 13 9 9 8 5 6 8 7 2 0 1 3 3 1 6 5 3 4 4 5 3 2 4 6 7 5 4 2 2 3 2 1 3 3 8 11 12 9 7 6 7 10 15 17 16 15 15 13 11 12 14 15 14 13 17 14 5 6 12 9 7 10 8 7 7 6 6 9 9 9 8
5 1 1 1 1 4 3 2 7 8 5 7 10 9 9 11 11 9 6 6 9 11 8 8 7 3 2 5 6 3 4 9 7 5 5 5 4 4 3 3 4 6 8 7 3 3 5 4 2 4 5 10 10 7 5 4 3 9 16 19 17 14 13 10 9 12 16 14 11 11 13 17 14 6 8 11 8 7 9 8 7 8 8 9 11 11 9 9
Wind_Direction
200 210 205 190 180 181 180 189 194 199 194 186 184 182 186 186 187 190 190 194 200 203 204 205 207 212 217 234 248 260 241 194 197 219 220 225 181 170 180 186 196 199 212 214 211 231 241 226 204 189 183 182 59 144 229 302 320 323 163 219 253 203 126 272 83 105 139 136 150 161 170 158 145 171 116 137 272 116 150 147 106 80 79 95 116 128 132 142
198 213 214 190 181 186 182 190 198 214 203 191 191 190 192 190 192 196 193 197 203 206 207 207 211 214 219 236 251 263 224 192 225 236 209 183 167 165 179 187 185 187 197 196 217 234 241 212 168 190 204 166 143 194 225 270 164 285 215 224 291 57 32 2 56 63 89 136 152 162 185 179 147 162 136 160 196 171 182 180 153 123 104 116 129 137 142 147
200 214 221 200 182 184 184 189 194 217 210 201 202 197 197 197 198 200 199 202 204 210 210 212 214 215 222 232 249 251 209 208 252 230 172 163 162 167 181 188 185 182 195 206 241 255 280 288 168 191 216 169 208 171 182 243 165 200 31 195 20 68 53 30 55 54 34 107 148 155 178 164 129 146 144 205 205 177 196 198 171 173 171 156 149 151 153 158
202 212 218 200 182 180 186 192 189 203 211 216 211 204 203 202 203 204 204 205 207 213 212 216 215 216 222 229 243 228 196 234 255 159 156 163 164 173 177 186 188 185 206 218 254 274 285 282 189 203 239 168 140 155 170 140 207 122 62 80 18 9 53 45 48 44 17 44 132 128 133 140 108 114 160 210 218 185 209 206 183 192 183 162 156 159 161 167
202 210 211 200 191 186 189 192 192 198 199 223 219 209 208 205 208 206 206 209 210 212 214 217 217 220 221 229 234 207 183 236 147 140 157 163 163 168 173 182 183 190 197 199 258 261 253 245 205 223 253 150 142 173 155 128 129 83 74 73 30 354 56 67 50 30 347 350 106 117 143 139 99 97 195 217 227 185 216 114 115 131 148 150 155 159 163 172
204 214 213 210 207 193 195 195 199 207 203 224 225 216 213 210 212 209 211 210 211 215 216 218 217 219 220 231 221 189 219 202 99 148 159 158 169 167 161 167 173 188 179 193 254 246 238 228 199 212 235 164 164 165 120 119 81 59 90 72 32 15 79 82 56 9 337 32 103 124 133 97 114 206 210 220 232 154 108 82 72 72 119 141 150 156 165 178
205 211 213 216 213 196 200 205 205 216 217 226 227 221 215 214 216 215 215 213 216 217 216 219 216 219 218 210 180 186 243 212 107 168 165 156 168 164 144 145 170 174 173 227 239 223 224 215 195 216 223 157 157 142 109 133 122 94 121 98 50 53 78 73 72 7 6 46 65 57 49 97 170 213 118 228 242 161 112 99 91 90 118 136 145 160 173 181
210 216 219 224 221 206 203 210 217 223 226 231 230 224 218 219 222 219 221 219 218 217 219 219 213 217 208 176 152 205 228 173 145 168 171 164 162 169 141 95 139 159 190 248 246 227 221 209 204 217 156 97 118 118 156 155 150 289 112 116 94 81 87 90 100 77 51 49 21 45 59 181 135 78 355 247 249 224 133 113 110 108 120 143 152 166 177 182
215 223 226 230 232 226 216 206 222 230 233 239 233 227 224 226 227 224 225 221 219 218 220 216 211 217 204 188 229 250 211 155 155 168 179 178 145 135 110 56 115 190 231 242 266 268 228 201 199 140 95 66 102 111 76 106 94 60 114 123 114 101 101 120 118 91 79 68 35 57 218 161 69 44 265 243 234 201 138 126 127 127 144 167 165 172 179 183
216 222 224 227 233 240 233 217 223 236 242 244 232 225 224 227 229 226 224 223 220 217 217 215 212 209 199 202 233 249 183 142 149 165 177 170 143 112 83 165 192 249 232 195 299 303 293 8 87 67 53 69 96 81 34 72 95 98 111 106 107 116 119 189 132 104 90 76 62 297 266 163 89 83 253 261 208 150 132 140 145 145 173 191 183 184 183 186
216 220 223 227 231 238 238 232 231 234 249 247 231 221 221 224 227 225 223 222 218 216 217 213 209 204 199 221 238 235 183 158 155 159 165 154 131 107 132 194 156 317 274 122 58 7 5 14 45 48 30 104 106 63 51 189 242 122 117 99 109 131 126 199 146 137 167 79 348 306 315 249 121 197 229 209 154 147 148 162 158 168 198 199 194 193 187 189
215 219 225 230 233 237 242 243 236 233 250 246 228 220 221 221 224 224 220 218 217 215 212 209 208 203 203 252 253 206 150 162 154 152 161 142 105 103 116 150 101 3 2 118 97 59 67 28 15 59 46 136 117 91 109 236 215 136 150 118 135 153 152 195 151 137 187 90 321 4 319 255 182 226 229 166 158 162 163 174 168 186 208 202 195 190 188 190
214 220 228 231 235 241 248 248 235 233 244 240 231 225 220 220 223 221 216 216 217 213 208 210 203 191 206 264 204 138 143 155 145 138 137 117 92 80 81 78 90 51 87 121 113 101 94 37 11 89 40 28 104 147 174 193 125 148 214 127 144 176 193 188 137 128 152 77 354 62 329 269 206 221 216 142 155 157 172 194 184 189 200 200 192 181 186 189
215 223 229 229 233 240 253 247 228 229 234 234 240 227 216 220 220 215 211 211 212 208 203 202 191 177 202 205 125 126 146 144 135 132 130 115 95 86 80 79 96 98 109 113 106 102 90 59 82 106 28 37 107 184 136 120 132 147 161 353 170 179 176 161 122 152 160 346 288 102 215 284 256 193 150 133 160 162 190 211 202 197 190 192 190 185 190 192
216 223 225 227 233 239 251 248 227 222 223 228 239 226 215 218 214 210 209 207 205 201 197 196 185 172 218 233 139 138 142 135 135 150 143 129 120 108 95 90 93 94 103 104 95 86 74 65 100 105 34 24 115 141 120 132 225 159 124 288 218 183 154 141 100 157 145 320 216 142 223 274 288 142 136 142 162 178 213 225 214 207 193 186 186 189 196 196
216 220 222 226 233 238 247 247 231 215 214 220 229 222 212 209 200 198 201 194 192 185 177 191 191 198 277 183 141 142 148 145 158 165 152 137 125 120 116 102 87 82 95 98 90 79 60 58 60 105 89 45 173 148 130 136 205 190 182 222 205 185 171 175 355 96 115 112 200 208 254 285 272 167 170 174 177 184 215 242 229 218 208 191 184 190 195 192
215 217 220 223 229 236 243 241 225 209 206 204 210 208 188 171 164 165 170 164 158 166 178 239 188 190 304 117 135 166 163 149 159 165 159 140 117 129 137 118 96 102 106 95 94 84 40 51 30 272 117 221 220 165 123 156 218 194 203 240 198 172 173 171 97 109 154 156 218 216 227 263 270 239 200 196 193 182 199 229 229 225 222 205 190 188 191 191
211 213 214 218 225 231 233 224 211 204 197 188 182 159 133 123 126 124 134 139 118 121 232 291 193 178 256 174 143 135 141 143 154 163 162 146 130 143 163 139 144 152 137 119 260 64 41 32 360 94 138 233 231 183 149 185 233 161 177 219 202 213 232 165 126 169 180 178 230 228 226 247 263 266 249 218 198 190 203 216 220 227 228 220 203 192 193 194
205 205 206 215 222 219 216 203 198 201 182 163 148 127 108 98 102 112 148 153 135 117 231 220 185 177 157 161 126 101 126 141 144 148 159 154 147 157 175 170 169 173 156 161 297 319 79 82 31 128 179 202 212 207 167 68 26 77 139 197 202 171 261 118 109 139 190 164 225 235 241 248 253 262 263 242 209 200 209 217 224 231 230 227 215 203 197 196
200 200 201 211 212 204 202 195 197 191 163 149 143 129 115 126 123 151 183 199 205 18 352 190 180 154 89 113 113 112 117 127 128 130 162 164 163 176 186 176 133 346 228 157 130 284 51 99 189 198 197 206 198 175 83 54 28 11 52 20 350 51 64 94 105 14 336 291 239 236 249 260 257 256 261 261 252 237 226 225 230 228 225 223 219 219 209 204
198 197 198 206 205 199 201 196 192 183 165 157 163 182 181 163 163 150 156 222 237 50 7 275 124 83 100 116 136 137 117 108 129 139 168 175 176 182 182 174 146 187 214 100 98 46 49 131 219 188 96 65 101 87 64 46 40 19 9 22 342 99 106 70 85 154 33 43 266 275 283 273 267 262 262 264 260 255 242 234 238 235 225 215 214 223 219 205
196 194 195 204 201 197 202 195 188 186 177 174 205 243 255 176 184 157 147 193 215 157 9 293 89 83 99 127 158 176 136 126 135 146 173 181 188 181 163 180 185 169 138 96 93 76 80 237 216 114 85 67 57 58 59 41 54 53 345 43 352 239 113 58 45 125 112 117 269 304 312 282 275 266 257 252 244 250 247 237 241 238 226 218 212 215 213 196
194 192 193 202 197 193 194 188 188 193 189 193 214 231 273 295 202 166 163 161 175 176 241 240 176 128 107 129 188 209 184 147 148 168 178 176 185 191 157 181 194 156 149 148 145 149 169 231 172 97 98 87 68 60 77 67 52 166 220 78 243 233 109 64 335 243 202 160 305 308 301 276 275 269 257 249 238 243 251 248 249 238 223 224 214 203 200 191
190 187 191 198 191 186 181 178 191 202 203 216 226 227 258 286 190 171 182 342 158 172 217 185 166 152 140 141 182 197 216 140 140 161 176 180 165 157 176 192 196 169 167 180 186 187 157 319 343 91 122 113 103 112 133 144 231 220 203 209 240 64 78 111 51 263 216 71 351 312 304 275 264 260 262 267 230 230 243 250 256 249 233 227 220 215 210 194
188 184 189 189 179 173 169 176 199 204 203 225 232 225 234 269 182 173 183 312 176 109 337 201 188 178 152 131 162 179 99 73 36 136 170 187 153 138 191 209 195 186 181 182 196 209 166 320 310 124 134 135 131 158 190 178 230 237 199 268 289 61 68 72 34 6 343 333 294 352 346 295 292 288 280 314 293 229 230 237 250 255 242 221 222 227 225 208
190 185 184 178 168 162 162 184 207 197 195 225 232 218 219 235 161 167 164 312 212 161 158 177 164 172 159 143 155 134 105 171 350 71 150 187 282 112 168 155 107 195 189 176 189 202 130 349 346 121 133 119 121 209 194 161 168 277 269 328 338 70 70 41 25 28 5 283 251 138 114 275 297 295 271 273 265 243 214 222 242 246 226 208 210 208 203 203
188 184 178 175 171 164 158 173 179 176 185 222 223 216 220 221 148 156 150 305 241 163 148 169 195 174 162 160 166 144 129 161 104 35 93 142 234 37 99 162 119 266 222 123 114 150 114 115 41 107 119 113 132 239 179 153 146 251 266 306 360 82 86 73 55 83 244 314 283 174 168 260 283 258 240 242 249 242 213 229 250 244 207 185 174 169 168 169
185 179 176 180 181 172 150 95 155 170 198 197 200 209 216 201 151 145 163 240 213 143 145 165 147 152 140 155 174 160 116 140 134 137 40 58 69 39 67 187 176 186 218 110 155 279 62 146 165 141 136 140 148 150 311 155 141 221 259 302 74 88 95 97 61 320 316 360 315 220 175 269 272 245 228 227 228 227 219 235 248 222 138 134 131 125 114 102
184 178 178 184 187 185 193 333 172 190 235 180 191 199 197 183 160 136 218 224 168 123 136 144 141 146 132 148 176 156 111 108 92 167 131 79 51 55 115 249 194 158 110 66 129 354 9 169 193 144 149 153 119 41 346 47 118 204 218 90 76 84 76 73 71 32 14 332 259 204 176 251 279 250 195 197 200 206 222 237 233 135 121 125 125 123 113 89
186 183 181 183 189 199 219 260 257 228 248 220 183 175 169 172 169 169 201 212 163 128 91 123 154 152 150 154 168 166 140 78 74 131 156 148 75 352 197 289 25 106 75 52 85 72 37 146 283 81 125 133 118 83 24 52 110 157 170 90 68 63 59 55 65 70 41 288 260 199 187 200 286 286 165 177 198 197 212 223 140 121 129 134 138 150 146 132
189 186 181 182 190 197 205 241 258 237 245 210 155 155 158 174 193 187 191 212 135 142 122 161 153 150 163 166 164 173 148 109 140 148 147 152 140 262 180 202 23 67 64 74 96 120 106 78 126 13 332 133 117 73 27 21 53 93 148 118 87 12 32 29 8 58 95 254 281 299 276 200 243 274 291 255 248 214 218 203 158 157 168 162 165 172 157 149
194 191 184 184 190 192 190 192 235 227 227 176 148 153 166 169 208 213 189 106 161 177 162 175 170 164 174 169 158 170 152 131 167 163 149 159 171 185 187 188 158 111 150 177 133 99 119 132 114 55 329 232 134 85 32 360 3 42 165 122 106 336 9 360 298 125 224 238 268 317 352 271 243 253 252 256 259 238 229 218 160 149 166 178 177 175 160 154
198 197 192 190 193 198 201 198 102 203 198 173 160 180 185 179 195 208 196 162 165 186 158 162 167 166 172 170 162 167 154 147 176 171 156 162 171 190 208 208 184 174 180 164 147 126 116 347 103 94 334 254 176 138 121 249 246 187 172 137 139 168 191 237 221 207 236 246 293 324 6 265 274 285 250 241 241 223 206 214 174 147 169 186 179 170 163 163
200 200 198 194 198 206 208 213 225 138 162 171 171 178 193 196 186 198 208 189 127 175 157 150 153 160 175 181 163 160 158 156 169 167 159 166 179 192 206 216 206 200 135 150 163 161 176 271 189 168 183 182 190 196 165 157 172 200 192 150 170 177 180 209 184 203 242 260 301 315 316 216 237 283 246 211 241 305 297 267 256 197 162 150 157 160 160 174
201 200 199 194 201 207 205 213 220 164 156 176 179 182 193 193 184 200 207 178 132 156 144 141 148 158 178 184 156 160 170 156 167 171 169 178 191 188 190 205 206 198 158 174 183 154 184 235 208 178 189 164 175 254 138 120 140 219 217 174 230 219 167 141 157 168 142 357 289 245 240 224 213 269 264 234 256 286 275 265 266 264 237 137 181 190 173 182
195 196 197 195 202 204 196 203 204 184 178 183 179 193 202 198 194 198 186 145 143 142 133 142 156 160 172 175 161 171 243 124 164 174 184 189 201 194 189 194 194 193 182 176 174 132 167 236 318 347 357 137 156 331 25 100 159 199 164 201 228 208 98 120 279 44 100 267 267 183 252 280 304 284 266 232 238 241 234 253 257 252 247 228 238 225 189 190
187 189 193 194 200 198 190 190 185 182 195 189 191 202 209 213 215 202 144 126 140 140 138 152 172 175 171 161 173 177 161 128 163 176 185 185 206 199 196 196 180 188 196 180 182 164 149 167 313 348 11 347 305 328 27 50 68 118 157 218 215 25 43 116 230 343 132 250 269 181 237 274 288 275 300 92 219 220 217 233 241 245 243 236 248 239 195 189
185 184 190 196 198 193 186 181 173 172 166 180 207 218 217 217 223 212 139 132 145 152 155 161 167 187 177 160 178 174 157 155 172 183 177 175 217 197 190 197 174 184 198 184 188 229 149 158 310 342 332 309 339 317 101 17 37 111 165 253 101 107 264 142 171 228 197 230 268 239 244 257 226 238 293 354 231 217 212 213 217 231 231 231 248 241 184 169
189 181 191 198 196 191 180 169 158 160 158 186 206 219 219 213 222 230 156 148 157 163 168 163 147 183 192 168 168 168 169 173 168 179 186 177 219 198 181 186 178 182 191 186 188 200 135 173 245 316 314 343 39 180 183 166 9 32 360 346 89 142 185 177 181 191 176 204 256 271 276 258 228 223 244 244 236 222 203 194 205 222 222 222 237 229 181 167
196 172 169 184 186 184 172 156 142 162 178 199 208 213 218 214 223 245 171 158 168 169 176 172 150 168 191 171 161 165 179 181 168 182 200 175 194 210 182 180 181 179 182 185 185 131 114 187 201 305 325 345 169 207 190 181 178 173 275 222 192 139 116 181 266 178 159 184 239 265 276 265 241 194 207 220 228 211 181 174 199 218 218 208 196 180 161 163
151 328 154 169 174 172 160 146 148 175 187 214 218 217 223 226 196 208 186 153 196 191 179 177 160 161 173 166 162 161 170 183 176 183 203 185 192 219 190 175 168 162 160 174 190 169 155 176 156 158 259 208 210 238 191 181 178 180 195 198 196 183 141 175 255 222 148 178 216 213 273 274 254 148 184 195 86 87 134 156 185 197 182 140 115 120 136 152
168 237 186 165 168 164 153 149 169 171 208 219 211 213 222 327 255 190 49 5 240 339 7 182 166 160 167 166 160 156 159 176 184 184 204 207 202 206 191 167 154 156 154 167 194 179 129 125 139 159 187 189 245 357 91 102 113 187 221 207 190 186 160 168 215 221 137 252 253 204 266 271 262 99 79 68 101 107 104 109 131 134 121 128 135 138 135 149
178 195 176 169 170 164 154 161 157 175 221 215 171 91 35 2 316 7 49 216 194 120 150 191 170 164 174 171 156 158 162 171 191 193 201 212 211 200 174 161 154 157 155 154 179 150 86 109 142 150 104 39 11 15 61 48 46 301 265 210 158 194 187 181 201 193 151 210 217 182 245 262 280 79 92 112 121 134 132 122 160 215 211 163 162 159 156 171
178 164 156 178 178 174 168 170 164 187 205 188 171 192 53 19 313 358 258 207 197 174 177 187 182 168 169 168 158 167 171 172 200 206 203 202 221 229 166 160 158 161 167 170 169 166 159 153 142 138 139 357 352 339 345 360 20 234 237 196 194 209 190 185 208 193 215 223 203 190 238 251 276 45 47 337 183 204 224 210 198 216 231 215 186 176 178 181
187 159 132 184 183 180 183 177 166 188 193 176 185 196 180 151 159 22 317 270 358 318 180 196 200 167 158 167 164 173 181 184 190 204 213 198 214 303 179 165 166 176 184 168 158 155 162 168 154 154 187 213 220 215 213 212 168 212 228 205 204 210 191 182 192 186 226 234 217 214 243 256 267 310 360 316 253 242 250 227 208 223 227 217 209 203 194 181
243 191 170 177 186 188 180 138 149 189 188 165 184 201 196 190 163 72 331 310 1 355 15 353 305 168 163 169 172 177 191 205 193 171 201 200 183 325 233 167 175 183 145 136 151 146 131 176 178 182 200 210 217 220 178 145 139 192 216 207 201 208 202 190 184 202 222 236 238 233 238 260 269 264 265 279 258 253 261 234 221 240 236 230 235 228 206 188
263 241 184 161 187 195 174 153 176 198 192 175 181 192 195 201 183 86 298 241 31 3 338 1 350 190 178 173 183 188 191 209 213 181 188 191 158 40 8 113 176 170 125 135 159 131 99 194 201 200 215 222 230 234 173 151 175 199 205 204 203 206 202 197 212 222 218 218 245 244 222 239 263 260 248 256 254 250 258 241 228 231 223 228 231 212 203 210
233 277 227 139 164 185 179 175 180 188 189 184 191 199 196 203 196 184 205 151 35 356 302 268 258 219 191 179 188 196 187 198 214 209 196 173 123 106 60 8 3 145 112 140 176 131 119 204 214 205 224 236 241 243 193 175 195 200 199 204 202 202 200 203 218 226 219 207 238 249 227 224 254 259 238 241 245 242 245 236 227 224 213 219 213 186 195 222
212 291 294 360 42 192 192 172 167 174 185 181 191 214 199 204 206 203 168 82 64 291 214 200 217 216 213 196 192 198 196 196 209 215 191 134 130 146 133 34 315 152 114 150 188 160 139 205 217 208 225 242 246 247 223 202 212 210 209 208 200 201 203 206 217 225 224 223 236 250 252 248 255 257 247 251 246 241 252 242 225 224 218 219 220 212 226 243
194 319 277 123 100 243 236 166 161 169 181 178 189 203 190 202 210 210 199 170 184 194 193 211 211 197 220 255 205 212 209 185 200 210 165 135 165 177 165 179 173 145 146 159 184 291 212 211 212 199 226 251 248 250 240 219 225 236 236 226 213 209 209 212 219 222 224 233 240 248 259 261 257 252 259 267 262 261 270 253 223 225 226 235 254 253 254 263
235 19 9 258 197 189 197 170 167 174 179 181 192 187 184 204 208 205 209 210 206 195 184 199 209 201 322 255 237 240 106 85 97 113 98 125 169 177 175 173 147 147 172 176 153 171 187 218 214 147 207 247 246 247 242 228 240 258 255 241 226 216 215 217 216 213 214 223 234 240 248 256 257 242 248 262 261 258 259 239 226 243 243 249 262 260 259 264
231 19 4 284 234 182 183 176 177 184 184 189 194 185 188 203 197 187 201 217 219 223 219 207 202 194 229 233 236 231 107 103 106 99 80 81 84 74 64 71 105 142 168 172 166 160 168 191 197 153 203 247 250 240 212 176 218 250 247 241 232 226 229 226 216 217 216 212 220 229 237 251 260 251 249 261 259 252 256 239 228 244 247 249 259 264 264 261
Height
775 776 777 777 778 779 780 781 781 781 781 781 782 783 784 785 786 786 787 788 788 788 789 790 790 791 791 791 790 790 790 790 791 791 791 791 790 791 791 792 791 791 791 791 791 791 791 791 790 790 791 792 794 795 796 795 794 799 807 815 817 813 813 809 807 810 812 816 817 814 813 816 821 819 816 817 819 820 822 821 821 823 824 826 828 830 831 833
774 775 776 777 778 778 779 780 781 781 781 781 782 783 784 785 785 786 787 787 788 788 789 789 790 790 790 790 790 790 790 790 791 790 790 790 790 791 791 791 791 791 791 791 791 791 791 790 789 790 791 795 796 796 799 797 796 803 808 814 815 813 810 804 804 807 808 813 815 813 812 813 817 818 817 821 823 822 824 824 822 825 827 828 829 830 832 832
773 775 775 776 777 778 779 779 780 781 781 781 782 783 784 784 785 785 786 787 787 788 788 789 790 790 790 790 790 790 790 790 792 790 789 790 791 791 791 792 791 791 791 791 791 790 790 788 788 790 792 797 797 797 801 799 799 803 807 815 815 810 809 805 805 807 807 809 812 813 811 812 814 814 817 821 822 822 824 823 823 826 826 827 828 829 831 832
772 774 775 776 776 777 778 779 779 780 781 781 781 782 783 784 785 785 786 786 787 787 788 789 789 789 790 789 790 790 789 793 793 788 788 790 791 791 791 791 791 791 791 790 790 790 790 788 788 789 793 798 798 797 801 801 801 802 807 816 812 806 810 810 808 809 807 807 810 813 813 815 814 813 817 819 822 824 820 817 817 819 819 823 827 827 829 831
772 773 774 775 776 776 777 778 779 779 780 781 781 782 783 783 784 785 785 786 786 787 787 788 788 789 789 789 790 789 791 798 794 786 788 790 790 791 791 791 791 791 790 790 790 790 790 788 788 791 794 799 800 801 802 799 800 805 809 811 809 807 812 812 809 811 809 806 810 814 815 815 813 815 816 818 823 823 817 813 812 812 813 819 823 826 828 829
771 772 773 775 775 776 777 778 778 779 780 780 781 781 782 783 783 784 785 785 786 786 787 787 788 789 789 789 790 789 794 799 791 786 789 789 790 791 790 791 790 790 790 790 790 790 790 788 791 796 796 798 801 803 802 798 799 808 812 810 809 808 812 813 811 813 810 809 813 815 814 812 815 818 815 815 818 816 812 811 811 811 812 816 820 824 826 827
770 771 773 774 775 776 776 777 778 778 779 779 780 781 781 782 782 783 784 785 785 785 786 787 788 788 789 789 790 790 793 793 788 788 789 789 791 790 790 790 789 790 789 790 790 789 790 790 794 795 796 799 800 802 802 799 800 807 813 812 811 810 812 814 813 814 812 812 814 813 813 814 818 819 815 815 813 810 810 809 810 812 812 816 819 822 824 825
769 770 772 773 774 775 776 776 777 778 779 779 780 780 781 781 782 782 783 784 784 785 786 786 787 788 789 789 790 792 792 789 787 788 789 789 790 789 790 789 789 790 789 790 789 788 789 791 793 792 797 800 797 801 801 801 804 807 811 812 812 813 814 814 814 814 813 813 813 813 815 815 816 817 818 816 811 809 809 809 811 812 814 816 818 820 822 823
768 770 771 772 773 774 775 776 777 778 778 779 779 780 780 781 781 782 783 783 783 784 785 786 787 787 789 788 789 793 791 787 787 788 789 789 789 789 789 788 789 789 788 789 788 788 789 791 792 790 797 799 796 801 802 805 810 807 809 811 812 814 814 814 814 814 814 814 814 815 818 816 814 817 817 812 809 808 808 810 811 813 815 816 817 818 819 821
767 769 770 771 772 773 774 775 776 777 778 778 778 779 780 780 781 781 782 783 783 784 784 786 787 787 789 788 791 795 789 785 787 788 788 789 788 788 788 788 788 788 788 788 787 788 788 789 788 786 792 795 797 803 803 807 810 805 808 811 812 815 815 814 815 815 814 814 816 818 819 816 815 819 819 810 806 807 808 811 812 813 816 815 816 816 817 819
766 767 769 770 771 772 773 774 775 776 777 777 778 778 779 779 780 781 782 783 783 783 784 785 786 787 788 788 791 792 787 785 786 786 788 788 788 788 788 788 788 788 788 788 788 788 787 787 785 787 793 795 799 805 805 806 806 805 808 812 814 814 815 814 815 816 815 817 816 817 819 817 818 820 816 809 806 807 809 811 812 814 815 814 814 815 815 816
765 766 768 769 770 771 772 773 774 776 776 776 777 777 778 779 780 781 781 782 783 783 784 785 786 787 787 788 789 788 785 786 786 786 788 788 788 788 788 788 788 787 787 787 789 788 788 787 785 791 796 795 802 808 807 804 804 806 807 814 818 815 817 816 814 815 816 819 816 816 822 820 819 817 807 806 808 807 809 811 812 813 813 813 813 813 814 815
764 766 767 768 769 770 771 772 773 775 775 775 776 777 778 779 779 781 781 782 782 783 784 785 786 786 788 789 787 785 785 786 786 787 788 788 788 788 788 789 788 788 787 787 788 788 788 787 787 792 793 796 805 807 804 803 805 808 808 813 819 821 821 814 813 816 816 819 815 818 828 820 812 809 804 805 807 808 811 811 811 812 812 812 811 812 813 814
764 765 766 767 768 769 770 771 772 773 774 775 776 777 777 778 779 780 781 782 782 783 784 785 786 786 788 788 786 785 785 786 787 787 787 788 788 789 789 789 788 788 788 787 788 788 788 788 787 791 793 797 803 803 805 807 808 811 812 814 818 825 826 815 813 817 818 821 814 820 834 822 808 807 805 806 806 808 811 810 810 810 810 810 810 812 812 812
763 764 766 767 767 768 769 770 771 772 773 774 775 776 777 778 779 780 781 782 782 784 784 785 786 786 788 788 786 786 786 786 787 787 788 788 789 790 790 789 789 789 789 788 788 789 789 789 790 795 800 798 801 806 811 813 811 811 819 824 819 822 828 820 815 816 819 822 816 823 834 822 809 808 807 806 807 808 810 809 808 807 807 808 809 810 811 811
761 763 765 766 767 767 768 769 770 771 772 774 775 776 777 778 779 780 781 781 783 784 784 785 785 786 788 787 786 786 786 786 786 787 788 788 789 790 790 790 790 790 790 789 789 789 789 790 794 799 802 803 805 809 813 819 819 814 820 827 820 820 827 825 820 817 817 821 820 824 830 822 812 810 808 806 807 808 810 809 806 805 804 804 806 808 809 810
761 762 764 765 766 767 768 769 769 770 772 774 775 776 777 778 779 780 781 782 784 784 784 785 783 785 787 786 786 786 784 785 786 787 788 789 789 790 790 790 791 791 790 790 790 790 790 794 800 801 802 805 805 806 819 831 829 821 821 823 817 816 822 825 825 820 817 822 823 824 828 823 813 809 808 808 807 807 808 808 805 803 802 801 803 804 805 807
760 761 763 764 765 766 767 768 769 770 772 773 775 777 778 779 780 780 781 782 783 784 786 784 784 791 791 786 785 784 782 784 786 787 788 789 789 790 790 790 791 791 792 793 793 793 795 798 802 806 806 808 805 808 824 829 822 821 823 823 818 814 815 820 824 822 819 823 824 825 828 823 813 808 806 805 805 806 805 804 802 801 800 800 799 801 802 803
758 760 762 763 765 766 767 768 769 770 771 774 776 777 778 779 780 780 781 782 782 785 787 783 782 790 789 782 781 781 782 784 786 788 789 789 790 790 790 790 791 792 796 800 799 797 799 802 807 812 813 811 808 808 815 815 811 814 816 817 817 816 817 819 823 822 819 824 826 825 825 819 813 808 803 800 800 802 802 800 800 798 797 797 797 798 798 799
757 759 761 762 764 765 766 768 769 770 772 774 775 777 778 779 781 782 781 781 779 779 780 777 777 780 780 778 780 782 783 785 787 788 789 789 790 791 791 791 793 796 799 802 803 800 801 810 814 814 812 807 804 804 806 807 808 810 812 814 815 816 821 822 824 824 820 824 824 819 819 815 810 806 801 798 797 798 799 798 797 795 794 794 795 795 795 795
756 759 760 762 763 764 766 767 768 770 771 773 775 776 773 772 776 779 779 781 778 776 777 776 775 777 778 779 780 780 782 786 787 787 789 789 789 793 794 794 799 803 801 800 804 801 804 815 814 807 806 803 802 803 805 807 809 812 814 817 818 817 822 823 824 825 821 825 822 815 816 813 807 804 800 797 797 795 794 794 793 791 791 792 792 792 792 792
756 758 759 761 762 764 766 767 769 770 771 772 774 772 768 767 770 770 772 779 778 775 777 776 776 777 778 779 780 779 781 787 790 788 789 789 790 795 796 796 802 804 800 801 807 810 814 817 809 803 802 802 804 804 806 810 812 815 817 821 823 819 822 827 827 825 823 826 824 818 821 817 806 803 799 795 794 791 787 787 787 785 787 788 788 789 789 790
755 756 758 760 761 764 766 767 769 769 770 771 771 770 767 766 767 767 769 775 778 777 776 776 776 778 780 780 779 779 781 785 790 790 788 790 792 793 795 798 800 802 802 804 809 817 821 815 805 802 802 803 808 808 810 814 815 818 820 824 827 820 822 829 830 827 824 826 826 824 828 822 807 801 796 791 789 786 784 782 781 781 782 783 784 785 786 788
753 755 758 759 761 764 765 767 769 769 770 770 769 767 767 767 767 768 768 771 775 777 775 775 775 776 778 779 778 780 782 781 784 788 787 789 791 792 794 796 798 802 804 802 805 812 815 811 805 803 803 804 811 814 814 819 821 819 819 822 824 821 823 827 827 824 822 827 829 827 828 817 802 798 793 786 785 784 782 781 779 778 778 780 781 782 783 784
752 755 757 758 761 763 765 768 767 768 769 769 768 765 767 768 766 768 770 773 777 778 777 775 774 774 774 776 778 778 780 781 783 785 785 787 789 792 794 792 795 803 802 800 804 808 811 811 807 806 807 807 812 817 815 819 823 821 819 821 819 820 824 825 826 825 828 834 831 828 833 819 797 794 793 786 785 785 783 782 780 777 777 779 780 780 781 782
752 755 756 759 761 762 766 766 765 767 769 768 766 765 767 767 767 769 771 780 783 779 780 777 774 774 772 775 778 777 783 787 785 784 785 788 787 789 795 793 795 800 797 797 802 807 812 813 809 808 811 812 815 818 814 816 825 826 825 825 820 820 826 827 828 831 835 837 829 827 840 834 811 800 795 788 786 785 783 782 779 777 777 777 779 779 780 782
752 754 756 759 760 762 765 763 763 766 766 766 764 766 768 766 769 768 775 796 791 773 776 779 774 772 771 774 774 778 790 790 786 788 786 788 788 787 795 797 798 800 794 798 809 812 813 815 813 811 814 817 820 821 815 813 824 829 828 827 822 821 827 829 830 835 835 833 830 826 833 839 827 806 791 786 787 785 782 781 776 774 775 775 777 778 779 781
751 753 756 758 759 761 762 761 763 763 763 763 762 766 767 767 770 768 784 809 789 763 769 774 771 769 769 773 773 778 786 783 787 793 787 788 790 789 796 797 796 799 793 800 816 816 812 815 815 813 818 821 822 824 819 814 823 830 828 825 823 824 828 828 831 836 833 836 840 833 831 839 826 798 784 784 788 788 782 778 774 773 775 775 778 779 779 781
751 753 755 758 760 761 761 762 763 762 762 762 762 766 766 768 770 770 791 801 773 757 765 768 771 772 771 775 776 778 782 782 788 792 788 789 790 790 796 795 792 797 797 800 813 817 815 818 815 813 817 821 825 829 823 817 821 828 827 824 824 826 828 830 834 836 837 842 843 833 830 836 819 790 784 787 787 787 781 775 774 775 776 777 778 780 781 782
750 752 755 757 759 761 762 762 762 762 762 762 763 765 766 769 771 783 803 790 760 760 768 768 771 772 773 779 781 780 782 787 789 790 791 790 791 791 793 793 791 798 804 805 813 820 818 817 816 816 818 820 826 829 826 822 822 825 826 825 828 830 830 834 835 836 843 844 838 830 824 829 822 796 786 787 781 779 777 775 777 778 778 778 779 780 782 783
749 751 754 756 758 760 762 763 762 761 763 763 764 765 768 771 774 789 798 772 754 766 772 772 772 769 771 777 782 782 783 789 789 789 794 793 795 796 795 798 799 805 814 813 817 822 820 819 819 820 820 819 823 826 827 826 824 826 825 826 833 837 837 842 842 845 851 846 837 834 827 828 826 804 788 782 775 773 775 776 777 777 777 777 779 780 781 783
748 750 752 755 757 759 761 761 761 761 763 763 764 764 768 778 783 784 777 761 760 768 767 768 769 768 770 771 778 782 783 789 789 787 792 795 799 799 797 800 801 811 822 820 821 824 822 821 821 822 822 819 819 826 831 830 828 828 826 829 840 846 848 852 853 854 853 845 839 836 833 830 818 797 785 780 774 772 773 773 773 772 774 775 777 780 780 783
747 749 752 754 756 758 759 760 760 761 762 762 765 765 767 782 786 772 762 758 760 758 755 759 762 765 769 771 777 779 780 787 788 786 789 791 797 799 796 793 792 801 812 814 822 827 826 825 824 825 824 818 817 823 832 833 831 830 828 833 842 849 855 857 853 850 846 842 842 839 836 830 811 790 781 777 774 771 769 770 770 768 771 773 774 778 780 782
746 749 751 753 755 757 758 760 761 761 762 763 765 768 772 779 774 761 756 753 752 751 751 755 760 765 768 769 773 775 779 786 785 784 788 791 797 800 797 793 789 792 799 807 816 821 826 827 823 821 818 815 816 816 819 822 828 829 821 825 834 837 843 847 845 843 841 842 846 846 838 823 806 790 779 774 772 771 770 769 768 767 769 771 772 776 779 781
745 748 750 752 754 756 757 760 761 761 763 764 765 769 773 770 759 752 750 746 748 752 752 754 760 768 771 769 770 771 776 783 782 782 787 790 794 794 793 792 789 788 795 806 808 810 818 818 815 815 811 811 815 812 808 815 828 828 818 823 832 826 825 837 844 842 842 846 846 844 833 811 795 782 773 773 772 770 771 769 767 769 770 771 772 773 776 779
744 746 749 751 752 754 757 759 760 762 762 763 766 767 763 752 742 740 739 739 746 751 755 761 764 769 775 773 773 772 773 778 781 784 787 787 788 786 785 784 783 783 790 798 801 804 813 818 818 818 814 815 819 815 811 815 823 824 825 829 826 818 818 833 847 845 845 848 837 828 821 804 794 781 766 767 770 770 773 771 769 770 770 771 770 769 773 776
741 744 746 748 750 753 756 757 759 762 762 763 765 760 751 739 730 730 731 735 742 744 753 766 766 766 772 776 777 774 773 777 780 785 788 788 785 780 779 777 776 779 781 786 792 792 801 819 825 821 820 821 821 819 816 816 819 823 830 827 818 819 822 826 841 846 846 849 832 817 814 807 805 793 768 764 770 770 772 772 771 771 770 770 768 767 770 771
738 741 743 745 748 751 755 757 759 761 762 764 763 753 744 736 727 725 728 732 738 741 749 759 760 759 764 773 777 773 773 779 784 784 785 788 783 772 774 776 773 775 775 779 789 786 789 812 828 829 827 825 820 819 820 821 820 821 825 822 820 830 832 829 839 844 846 850 834 816 812 807 802 791 774 772 773 769 769 769 770 770 769 769 767 766 768 769
737 739 741 741 745 750 753 756 758 761 763 765 762 750 738 733 728 724 725 729 734 739 745 748 752 756 759 764 769 771 772 776 783 784 781 785 782 768 766 771 772 774 773 776 786 787 787 802 822 831 829 825 822 823 825 825 824 823 823 822 822 827 830 829 831 832 836 843 835 822 817 803 785 776 773 773 768 765 766 767 767 767 766 766 765 764 766 768
736 738 738 737 741 747 752 755 758 762 763 757 751 742 733 731 729 725 723 726 730 734 738 740 745 753 756 756 761 767 770 771 776 780 777 777 778 770 764 765 769 772 772 775 781 786 791 798 813 832 833 826 824 820 818 819 821 825 827 827 825 826 829 829 826 821 825 835 834 830 824 799 771 763 764 764 761 759 760 763 763 763 762 762 763 762 764 766
737 739 738 735 739 744 750 755 758 761 759 750 743 739 735 733 731 727 725 726 727 728 730 733 739 746 751 754 758 762 767 770 771 774 773 771 772 771 763 759 765 771 773 780 782 783 792 798 810 831 834 824 818 813 811 811 811 816 820 820 820 822 827 834 832 822 821 827 825 827 827 796 763 756 757 757 758 756 757 759 760 760 760 761 763 763 764 765
739 743 739 735 738 740 745 752 754 755 753 745 740 738 737 735 732 730 729 728 728 728 727 729 733 740 745 749 754 758 763 768 769 770 769 766 764 764 759 755 761 766 770 779 781 776 783 793 805 820 822 818 816 815 816 815 810 811 814 811 812 817 821 830 835 826 823 825 817 823 828 792 755 753 757 755 757 756 757 758 758 759 760 761 763 763 764 765
738 741 738 736 738 738 742 748 751 752 748 740 737 738 739 738 735 733 732 731 731 730 730 730 729 735 741 743 748 754 758 763 765 765 764 763 760 756 755 755 759 764 768 777 780 777 781 792 802 810 813 816 817 815 815 815 814 814 814 811 812 814 814 818 821 819 822 823 817 828 831 792 757 756 757 756 758 757 757 757 757 759 760 761 762 762 763 765
734 737 737 737 738 737 740 745 745 745 742 739 740 741 742 741 739 738 736 733 733 731 732 732 728 731 736 737 743 749 752 758 763 761 759 761 760 755 752 754 759 762 765 769 772 776 784 793 799 808 816 819 820 819 818 818 819 817 813 811 810 808 809 812 813 816 822 817 812 823 821 787 763 762 760 758 759 757 757 758 757 758 758 759 760 760 762 763
732 734 736 736 736 737 739 741 740 738 738 741 743 742 742 743 742 743 741 736 735 733 733 733 728 727 732 736 741 746 746 749 756 760 759 759 760 757 754 754 757 759 759 760 761 768 780 787 792 803 814 817 815 813 810 811 816 817 811 808 808 807 808 810 814 822 823 810 806 813 804 779 764 764 763 762 762 760 758 758 758 758 757 757 758 758 760 760
732 733 734 735 735 736 737 738 739 741 742 745 746 742 742 743 742 743 743 740 739 738 736 735 730 729 734 738 742 747 747 745 748 755 759 759 759 760 757 755 756 758 758 759 761 766 776 781 784 789 794 795 794 789 787 794 806 809 805 804 807 805 804 808 814 818 811 805 806 802 793 784 771 765 768 765 763 763 761 759 759 757 757 757 756 757 757 757
733 731 730 731 733 734 737 740 742 744 744 746 745 741 742 744 743 744 744 742 741 740 739 739 735 733 736 739 742 745 746 746 747 752 756 757 759 763 762 759 758 760 759 761 763 767 775 780 780 781 780 778 775 774 778 785 791 793 795 799 803 802 803 807 808 800 796 805 805 788 786 790 774 762 768 767 763 764 761 759 757 755 755 755 754 756 756 756
733 730 726 726 728 729 733 738 742 744 744 745 743 740 742 745 745 746 746 745 744 743 743 742 740 736 735 736 740 744 745 748 750 750 750 755 761 765 766 765 764 764 763 764 765 767 774 778 776 777 778 774 770 771 776 780 781 783 787 791 795 798 801 802 797 787 787 799 796 778 781 785 767 758 764 762 759 760 757 755 754 752 753 752 752 754 754 754
731 731 727 726 727 726 726 730 738 743 745 747 747 745 744 745 745 744 744 747 749 747 745 744 741 738 737 735 737 741 744 747 749 747 747 754 761 764 767 768 768 768 766 766 768 768 772 775 773 774 778 775 772 772 773 777 781 782 783 785 787 790 791 789 786 781 783 789 784 776 780 776 759 755 759 754 753 754 752 752 752 751 751 750 750 752 751 751
730 730 728 727 728 727 726 728 735 741 744 746 747 747 746 744 742 741 742 745 748 747 746 745 741 739 740 740 740 742 741 742 745 745 746 752 757 760 762 762 763 769 771 769 770 771 773 774 770 772 779 779 774 772 775 779 781 782 783 782 780 781 782 782 780 780 785 788 781 779 784 771 749 749 755 751 749 752 751 750 750 749 749 748 748 749 749 750
729 729 728 729 728 727 726 727 731 736 740 743 742 741 744 743 738 738 740 739 740 743 744 744 744 742 743 744 745 746 745 745 748 749 748 750 754 755 756 755 757 766 772 772 771 772 776 776 772 775 785 782 771 773 778 779 782 786 784 776 773 776 777 778 779 779 781 783 782 786 786 764 744 748 754 748 748 751 750 749 749 747 748 748 747 747 748 748
729 729 729 730 728 725 725 726 728 730 731 734 734 732 736 737 735 738 742 740 739 739 740 742 744 746 747 747 746 746 747 749 752 755 754 754 755 756 757 757 756 761 767 770 771 772 775 775 773 778 785 780 772 774 778 782 790 788 771 760 764 770 770 771 773 770 768 772 778 780 770 751 743 750 753 749 750 751 748 747 748 746 746 746 745 744 745 745